Tracking 25723 objects as of 27-Jun-2022
HD Live streaming from Space Station
objects crossing your sky now

DMSP 5D-2 F13 DEB

Track DMSP 5D-2 F13 DEB now!
10-day predictions


NORAD ID: 40438
Int'l Code: 1995-015AQ
Perigee: 806.1 km
Apogee: 856.1 km
Inclination: 98.8 °
Period: 101.4 minutes
Semi major axis: 7202 km
RCS: Unknown
Launch date: March 24, 1995
Source: United States (US)
Launch site: AIR FORCE WESTERN TEST RANGE (AFWTR)

Note: This is SATELLITE DEBRIS
aabbcc
Your satellite tracking list
Your tracking list is empty




NASA's NSSDC Master Catalog

Two Line Element Set (TLE):
1 40438U 95015AQ  22177.24079158  .00004230  00000-0  19808-2 0  9991
2 40438  98.8211 166.5124 0034722  77.8157 282.6906 14.20420841377813
Source of the keplerian elements: AFSPC